(253666) = 2003 UE186

Discovered at Socorro on 2003-10-22 by LINEAR.

Orbit

Orbit type: Main Belt

Note: WebGL enabled browser required.

epoch2023-02-25.0
epoch JD2460000.5
perihelion date2020-12-22.17967
perihelion JD2459205.67967
argument of perihelion (°)11.58358
ascending node (°)353.98250
inclination (°)6.09049
eccentricity0.1943035
perihelion distance (AU)1.8467551
Tisserand w.r.t. Jupiter3.6
ΔV w.r.t. Earth (km/sec)8.6
semimajor axis (AU)2.2921223
mean anomaly (°)225.74395
mean daily motion (°/day)0.28401880
aphelion distance (AU)2.737
period (years)3.47
P-vector [x]0.99516619
P-vector [y]0.07948135
P-vector [z]0.05767988
Q-vector [x]-0.09757326
Q-vector [y]0.86676668
Q-vector [z]0.48907565
absolute magnitude16.99
phase slope0.15
uncertainty0
referenceMPO 745323
observations used504
oppositions14
arc length (days)7209
first opposition used2003
last opposition used2023
residual rms (arc-secs)0.77
perturbers coarse indicatorM-v
perturbers precise indicator003Ek
first observation date used2003-09-20.0
last observation date used2023-06-16.0
computer nameMPCLINUX
JD of orbit computation2456494.370608
perihelion JD uncertainty (days)6.8446E-05
argument of perihelion uncertainty (°)5.9567E-05
ascending node uncertainty (°)5.7679E-05
inclination uncertainty (°)7.3564E-06
eccentricity uncertainty 1.1336E-07
perihelion distance uncertainty (AU)2.5910E-07
Minimum Orbit Intersection Distances (in AU)
for orbit epoch: 2460000.5, reference: E2023-M35
Mercury1.48656
Venus1.12393
Earth0.84352
Mars0.45167
Jupiter2.71315
Saturn6.66576
Uranus15.7228
Neptune27.8977

Observations

516 total observations over interval: 2003 09 20.36781 – 2023 06 16.313499
These data are available for download (format description).

Date (UT) J2000 RA J2000 Dec Magn Location Ref
2003 09 20.36781 02 37 16.92 +20 31 37.0 21.4   608 – Haleakala-AMOS MPS 90663
2003 09 20.37852 02 37 16.89 +20 31 41.5 21.0   608 – Haleakala-AMOS MPS 90663
2003 09 20.38931 02 37 16.82 +20 31 45.8 20.8   608 – Haleakala-AMOS MPS 90663
2003 09 22.35577 02 37 05.38 +20 44 05.3 18.9 C 704 – Lincoln Laboratory ETS, New Mexico MPS 290179
2003 09 22.36786 02 37 05.28 +20 44 11.0 18.7 C 704 – Lincoln Laboratory ETS, New Mexico MPS 290179
2003 09 22.39260 02 37 05.08 +20 44 19.8 18.8 C 704 – Lincoln Laboratory ETS, New Mexico MPS 290179
2003 09 22.40507 02 37 04.93 +20 44 24.6 19.2 C 704 – Lincoln Laboratory ETS, New Mexico MPS 290179
2003 09 27.30427 02 35 55.86 +21 12 18.1 19.4   704 – Lincoln Laboratory ETS, New Mexico MPS 90663
2003 09 27.31703 02 35 55.55 +21 12 22.5 19.6   704 – Lincoln Laboratory ETS, New Mexico MPS 90663
2003 09 27.32982 02 35 55.27 +21 12 27.3 19.7   704 – Lincoln Laboratory ETS, New Mexico MPS 90663
2003 09 27.34318 02 35 54.86 +21 12 30.9 20.1   704 – Lincoln Laboratory ETS, New Mexico MPS 90663
2003 09 27.35598 02 35 54.64 +21 12 34.1 20.1   704 – Lincoln Laboratory ETS, New Mexico MPS 90663
2003 10 17.45778 02 21 50.42 +22 16 47.6 19.1 R 699 – Lowell Observatory-LONEOS MPS 90663
2003 10 17.46776 02 21 49.79 +22 16 46.4   699 – Lowell Observatory-LONEOS MPS 90663
2003 10 17.47770 02 21 49.18 +22 16 49.7   699 – Lowell Observatory-LONEOS MPS 90663
2003 10 17.48773 02 21 48.57 +22 16 48.9   699 – Lowell Observatory-LONEOS MPS 90663
2003 10 22.26364 02 16 52.79 +22 18 52.6 19.1   704 – Lincoln Laboratory ETS, New Mexico MPS 89820
2003 10 22.28867 02 16 51.05 +22 18 53.1 19.4   704 – Lincoln Laboratory ETS, New Mexico MPS 89820
2003 10 22.30085 02 16 50.22 +22 18 53.0 19.3   704 – Lincoln Laboratory ETS, New Mexico MPS 89820
2003 10 22.31295 02 16 49.39 +22 18 53.6 19.2   704 – Lincoln Laboratory ETS, New Mexico MPS 89820
2003 10 23.46814 02 15 34.91 +22 18 38.5 19.3   608 – Haleakala-AMOS MPS 89820
2003 10 23.47857 02 15 34.16 +22 18 38.4 19.7   608 – Haleakala-AMOS MPS 89820
2003 10 23.48899 02 15 33.45 +22 18 38.2 19.9   608 – Haleakala-AMOS MPS 89820
2003 10 23.49743 02 15 32.84 +22 18 36.5 20.2   608 – Haleakala-AMOS MPS 89820
2003 10 23.50774 02 15 32.10 +22 18 36.7 20.2   608 – Haleakala-AMOS MPS 89820
2003 10 23.51859 02 15 31.39 +22 18 36.6 19.9   608 – Haleakala-AMOS MPS 89820
2003 10 24.41439 02 14 33.60 +22 18 11.3 20.1   608 – Haleakala-AMOS MPS 90663
2003 10 24.42508 02 14 32.89 +22 18 10.8 20.2   608 – Haleakala-AMOS MPS 90663
2003 10 24.43576 02 14 32.13 +22 18 09.6 20.1   608 – Haleakala-AMOS MPS 90663
2003 10 29.13033 02 09 24.62 +22 13 17.2 18.0 R 699 – Lowell Observatory-LONEOS MPS 90663
2003 10 29.15030 02 09 23.33 +22 13 15.7   699 – Lowell Observatory-LONEOS MPS 90663
2003 10 29.17020 02 09 21.90 +22 13 14.3   699 – Lowell Observatory-LONEOS MPS 90663
2003 10 29.19012 02 09 20.60 +22 13 12.9   699 – Lowell Observatory-LONEOS MPS 90663
2003 10 30.26516 02 08 10.12 +22 11 32.4 18.9   704 – Lincoln Laboratory ETS, New Mexico MPS 90663
2003 10 30.27728 02 08 09.21 +22 11 31.6 19.1   704 – Lincoln Laboratory ETS, New Mexico MPS 90663
2003 10 30.28943 02 08 08.43 +22 11 30.5 18.7   704 – Lincoln Laboratory ETS, New Mexico MPS 90663
2003 10 30.31384 02 08 06.73 +22 11 27.2 18.7   704 – Lincoln Laboratory ETS, New Mexico MPS 90663
2003 11 18.17503 01 50 48.50 +21 21 11.9 19.5   644 – Palomar Mountain/NEAT MPS 91095
2003 11 18.19581 01 50 47.64 +21 21 08.1 20.0   644 – Palomar Mountain/NEAT MPS 91095
2003 11 18.21645 01 50 46.74 +21 21 04.3 19.5   644 – Palomar Mountain/NEAT MPS 91095
2003 11 19.19712 01 50 08.90 +21 18 04.1 19.3   704 – Lincoln Laboratory ETS, New Mexico MPS 91095
2003 11 19.22249 01 50 07.83 +21 17 59.6 19.3   704 – Lincoln Laboratory ETS, New Mexico MPS 91095
2003 11 19.23543 01 50 07.33 +21 17 57.1 18.8   704 – Lincoln Laboratory ETS, New Mexico MPS 91095
2003 11 19.24850 01 50 06.78 +21 17 54.8 19.1   704 – Lincoln Laboratory ETS, New Mexico MPS 91095
2003 11 21.07469 01 49 02.43 +21 12 21.1 19.2 V 691 – Steward Observatory, Kitt Peak-Spacewatch MPS 91095
2003 11 21.10220 01 49 01.45 +21 12 16.5 19.6 V 691 – Steward Observatory, Kitt Peak-Spacewatch MPS 91095
2003 11 21.12918 01 49 00.47 +21 12 11.9 19.8 V 691 – Steward Observatory, Kitt Peak-Spacewatch MPS 91095
2003 12 19.14026 01 48 30.96 +20 28 37.7 19.8   704 – Lincoln Laboratory ETS, New Mexico MPS 94730
2003 12 19.16669 01 48 31.48 +20 28 37.4 20.2   704 – Lincoln Laboratory ETS, New Mexico MPS 94730
2003 12 19.17980 01 48 31.85 +20 28 38.3 20.0   704 – Lincoln Laboratory ETS, New Mexico MPS 94730
2003 12 19.19306 01 48 32.32 +20 28 37.8 20.3   704 – Lincoln Laboratory ETS, New Mexico MPS 94730
2005 03 08.33892 11 44 31.11 +01 55 15.9 20.1 R G96 – Mt. Lemmon Survey MPS 130740
2005 03 08.34553 11 44 30.73 +01 55 17.0 18.1 R G96 – Mt. Lemmon Survey MPS 130740
2005 03 08.35211 11 44 30.30 +01 55 19.2 17.1 R G96 – Mt. Lemmon Survey MPS 130740
2005 03 08.35867 11 44 29.88 +01 55 20.9 20.5 R G96 – Mt. Lemmon Survey MPS 130740
2005 04 02.29839 11 20 12.84 +03 39 10.8 19.4 R G96 – Mt. Lemmon Survey MPS 130740
2005 04 02.30626 11 20 12.44 +03 39 12.2 19.9 R G96 – Mt. Lemmon Survey MPS 130740
2005 04 02.31633 11 20 11.94 +03 39 14.8 20.3 R G96 – Mt. Lemmon Survey MPS 130740
2005 04 02.32453 11 20 11.48 +03 39 15.8 20.4 R G96 – Mt. Lemmon Survey MPS 130740
2007 12 18.39015 09 22 53.72 +23 12 29.4 20.5 V G96 – Mt. Lemmon Survey MPS 239377
2007 12 18.39689 09 22 53.58 +23 12 30.2 20.5 V G96 – Mt. Lemmon Survey MPS 239377
2007 12 18.40363 09 22 53.47 +23 12 31.1 20.8 V G96 – Mt. Lemmon Survey MPS 239377
2007 12 18.41047 09 22 53.36 +23 12 32.1 20.6 V G96 – Mt. Lemmon Survey MPS 239377
2008 01 30.22514 08 45 47.30 +25 34 52.0 20.1 V 703 – Catalina Sky Survey MPS 235312
2008 01 30.23171 08 45 46.83 +25 34 54.1 19.7 V 703 – Catalina Sky Survey MPS 235312
2008 01 30.23823 08 45 46.33 +25 34 54.5 20.5 V 703 – Catalina Sky Survey MPS 235312
2008 01 30.24476 08 45 45.93 +25 34 56.1 20.6 V 703 – Catalina Sky Survey MPS 235312
2008 02 03.18982 08 41 02.14 +25 42 53.7 20.3 V 703 – Catalina Sky Survey MPS 236198
2008 02 03.19613 08 41 01.64 +25 42 54.9 20.3 V 703 – Catalina Sky Survey MPS 236198
2008 02 03.20245 08 41 01.14 +25 42 55.7 21.2 V 703 – Catalina Sky Survey MPS 236198
2008 02 03.20880 08 41 00.74 +25 42 56.0 20.4 V 703 – Catalina Sky Survey MPS 236198
2008 02 06.27907 08 37 25.45 +25 47 36.9 20.1   704 – Lincoln Laboratory ETS, New Mexico MPS 236198
2008 02 06.29136 08 37 24.60 +25 47 36.6 20.4   704 – Lincoln Laboratory ETS, New Mexico MPS 236198
2008 02 06.30363 08 37 23.70 +25 47 38.5 20.7   704 – Lincoln Laboratory ETS, New Mexico MPS 236198
2008 02 06.31590 08 37 22.75 +25 47 39.2 20.2   704 – Lincoln Laboratory ETS, New Mexico MPS 236198
2008 02 11.22791 08 31 56.56 +25 52 07.7 20.2 V G96 – Mt. Lemmon Survey MPS 237474
2008 02 11.23236 08 31 56.28 +25 52 07.7 20.1 V G96 – Mt. Lemmon Survey MPS 237474
2008 02 11.23677 08 31 55.99 +25 52 07.8 20.3 V G96 – Mt. Lemmon Survey MPS 237474
2008 02 11.24121 08 31 55.70 +25 52 08.0 20.1 V G96 – Mt. Lemmon Survey MPS 237474
2008 02 13.17350 08 29 55.27 +25 52 53.6 20.3   704 – Lincoln Laboratory ETS, New Mexico MPS 237474
2008 02 13.18534 08 29 54.46 +25 52 53.4 20.7   704 – Lincoln Laboratory ETS, New Mexico MPS 237474
2008 02 13.20904 08 29 53.06 +25 52 54.4 20.4   704 – Lincoln Laboratory ETS, New Mexico MPS 237474
2008 04 03.11851 08 16 22.83 +23 45 20.2 20.7 V G96 – Mt. Lemmon Survey MPS 244643
2008 04 03.12401 08 16 22.94 +23 45 19.1 21.3 V G96 – Mt. Lemmon Survey MPS 244643
2008 04 03.12950 08 16 23.16 +23 45 17.6 21.0 V G96 – Mt. Lemmon Survey MPS 244643
2008 04 03.13502 08 16 23.26 +23 45 16.0 21.3 V G96 – Mt. Lemmon Survey MPS 244643
2009 05 23.31963 14 10 12.03 -21 19 34.1 20.2 V F84 – Hibiscus Observatory, Punaauia MPS 375455
2009 05 23.41119 14 10 07.12 -21 19 11.7 20.7 V F84 – Hibiscus Observatory, Punaauia MPS 375455
2009 05 23.50289 14 10 02.29 -21 18 47.8 20.7 V F84 – Hibiscus Observatory, Punaauia MPS 375455
2009 05 25.44016 14 08 25.79 -21 10 28.6 20.1 V F84 – Hibiscus Observatory, Punaauia MPS 377029
2009 05 25.48947 14 08 23.31 -21 10 15.3 20.2 V F84 – Hibiscus Observatory, Punaauia MPS 377029
